Weather History for KLVK - April, 2014

Change the Weather History Date:

Wednesday, April 2, 2014

  Actual Average Record
Temperature  
Mean Temperature 50 °F 54 °F  
Max Temperature 60 °F 66 °F 88 °F (2000)
Min Temperature 39 °F 43 °F 30 °F (1976)
Degree Days  
Heating Degree Days 15 11  
Month to date heating degree days 32 22  
Since 1 July heating degree days 1756 2386  
Cooling Degree Days 0 0  
Month to date cooling degree days 0 0  
Year to date cooling degree days 0 1  
Moisture  
Dew Point 41 °F    
Average Humidity 69    
Maximum Humidity 96    
Minimum Humidity 42    
Precipitation  
Precipitation 0.01 in 0.05 in 0.37 in (1939)
Month to date precipitation 0.39 0.09  
Year to date precipitation 3.90 8.33  
Since 1 July precipitation 6.28  
Sea Level Pressure  
Sea Level Pressure 30.02 in    
Wind  
Wind Speed 4 mph (NE)    
Max Wind Speed 13 mph    
Max Gust Speed 16 mph    
Visibility 10 miles    
Events      
T = Trace of Precipitation, MM = Missing Value Source: NWS Daily Summary

Daily Weather History Graph

Daily Weather History Graph

Search for Another Location

Airport or City:

Trip Planner

Search our weather history database for the weather conditions in past years. The results will help you decide how hot, cold, wet, or windy it might be!

Date:

Astronomy

Apr. 02, 2014 Rise Set
Actual Time 6:50 AM PDT 7:31 PM PDT
Civil Twilight 6:24 AM PDT 7:57 PM PDT
Nautical Twilight 5:53 AM PDT 8:28 PM PDT
Astronomical Twilight 5:21 AM PDT 9:01 PM PDT
Moon 8:42 AM PDT (4/2) 10:56 PM PDT (4/2)
Length of Visible Light 13h 33m
Length of Day
12h 40m
Waxing Crescent, 11% of the Moon is Illuminated
Apr 2
Waxing Crescent
Apr 7
First Quarter
Apr 15
Full
Apr 22
Last Quarter
Apr 28
New

Hourly Weather History & Observations

Time (PDT) Temp. Windchill Dew Point Humidity Pressure Visibility Wind Dir Wind Speed Gust Speed Precip Events Conditions
12:53 AM 42.1 °F - 39.0 °F 89% 29.88 in 10.0 mi Calm Calm - N/A   Partly Cloudy
1:53 AM 39.0 °F 36.8 °F 37.9 °F 96% 29.89 in 10.0 mi East 3.5 mph - N/A   Scattered Clouds
2:53 AM 42.1 °F - 39.9 °F 92% 29.90 in 10.0 mi Calm Calm - 0.01 in   Overcast
3:08 AM 42.8 °F - 39.2 °F 87% 29.90 in 10.0 mi Calm Calm - N/A   Overcast
3:31 AM 42.8 °F 41.1 °F 39.2 °F 87% 29.90 in 10.0 mi NE 3.5 mph - N/A   Mostly Cloudy
3:53 AM 43.0 °F 40.3 °F 39.9 °F 89% 29.91 in 10.0 mi ENE 4.6 mph - N/A   Overcast
5:53 AM 43.0 °F - 39.9 °F 89% 29.93 in 10.0 mi Calm Calm - N/A   Mostly Cloudy
6:53 AM 42.1 °F - 39.9 °F 92% 29.96 in 10.0 mi Calm Calm - N/A   Clear
7:53 AM 43.0 °F - 41.0 °F 93% 29.99 in 10.0 mi Calm Calm - N/A   Scattered Clouds
8:53 AM 46.9 °F - 43.0 °F 86% 30.01 in 10.0 mi ESE 3.5 mph - N/A   Clear
9:53 AM 52.0 °F - 43.0 °F 71% 30.03 in 10.0 mi NE 11.5 mph - N/A   Partly Cloudy
10:53 AM 53.1 °F - 42.1 °F 66% 30.06 in 10.0 mi ENE 8.1 mph - N/A   Clear
11:26 AM 53.6 °F - 42.8 °F 67% 30.06 in 10.0 mi East 6.9 mph - N/A   Mostly Cloudy
11:43 AM 53.6 °F - 42.8 °F 67% 30.07 in 10.0 mi NE 4.6 mph - N/A   Scattered Clouds
11:53 AM 54.0 °F - 42.1 °F 64% 30.07 in 10.0 mi NNE 8.1 mph - N/A   Mostly Cloudy
12:53 PM 55.9 °F - 39.9 °F 55% 30.06 in 10.0 mi NE 5.8 mph - N/A   Partly Cloudy
1:53 PM 59.0 °F - 41.0 °F 51% 30.07 in 10.0 mi NE 5.8 mph - N/A   Mostly Cloudy
3:53 PM 59.0 °F - 42.1 °F 53% 30.06 in 10.0 mi Variable 5.8 mph - N/A   Scattered Clouds
4:53 PM 59.0 °F - 41.0 °F 51% 30.06 in 10.0 mi ENE 3.5 mph - N/A   Clear
5:53 PM 60.1 °F - 37.9 °F 44% 30.05 in 10.0 mi North 4.6 mph - N/A   Scattered Clouds
6:53 PM 60.1 °F - 37.0 °F 42% 30.06 in 10.0 mi Calm Calm - N/A   Clear
7:53 PM 53.1 °F - 44.1 °F 71% 30.06 in 10.0 mi West 10.4 mph - N/A   Clear
8:53 PM 51.1 °F - 44.1 °F 77% 30.09 in 10.0 mi West 5.8 mph - N/A   Clear
9:53 PM 50.0 °F - 43.0 °F 77% 30.10 in 10.0 mi SW 3.5 mph - N/A   Clear
10:53 PM 48.9 °F - 43.0 °F 80% 30.11 in 10.0 mi Calm Calm - N/A   Clear
11:53 PM 48.0 °F - 43.0 °F 83% 30.11 in 10.0 mi Calm Calm - N/A   Clear